GFSNW_700_temp_018.txt.gz
Temp
-4 -5 -6 -6 -6 -7 -7 -7 -8 -7 -7 -7 -6 -6 -4 -4 -4 -3 -3 -3 -2 -4 -4 -4 -4 -2 -3 -3 -3 -4 -4 -3 -4 -3 -2 -2 -3 -3 -4 -4 -3 -3 -2 -2
-3 -5 -5 -6 -6 -7 -7 -6 -7 -7 -6 -6 -5 -5 -4 -4 -3 -3 -3 -2 -2 -3 -3 -3 -2 -3 -3 -3 -3 -3 -4 -4 -4 -3 -3 -3 -3 -3 -3 -4 -4 -4 -4 -2
-3 -4 -5 -5 -6 -6 -6 -6 -6 -5 -5 -5 -4 -4 -4 -4 -4 -3 -2 -2 -2 -3 -3 -2 -3 -3 -3 -2 -3 -4 -4 -4 -3 -2 -1 -3 -4 -3 -3 -4 -4 -3 -3 -3
-3 -3 -4 -4 -4 -5 -4 -4 -5 -4 -3 -3 -4 -4 -4 -4 -4 -2 -2 -3 -3 -3 -3 -3 -3 -4 -3 -3 -3 -4 -4 -5 -4 -3 -2 -3 -3 -2 -2 -4 -3 -4 -2 -3
-3 -3 -3 -3 -3 -4 -3 -3 -2 -2 -2 -4 -3 -3 -4 -4 -3 -3 -3 -3 -3 -3 -3 -3 -3 -3 -4 -3 -4 -4 -4 -4 -4 -3 -2 -2 -2 -2 -2 -2 -2 -2 -2 -2
-3 -2 -3 -3 -3 -3 -4 -3 -3 -3 -3 -3 -4 -4 -4 -4 -3 -3 -3 -3 -2 -3 -3 -3 -3 -3 -3 -3 -3 -3 -4 -4 -4 -3 -2 -2 -2 -1 -1 -1 -2 -2 -2 -2
-3 -3 -2 -3 -2 -3 -3 -3 -3 -3 -4 -4 -4 -4 -4 -3 -3 -3 -3 -3 -3 -3 -3 -3 -3 -3 -3 -3 -3 -3 -3 -3 -4 -4 -2 -2 -1 -0 -1 -2 -0 -2 -2 -2
-3 -3 -3 -3 -3 -2 -3 -4 -4 -4 -5 -5 -5 -4 -3 -4 -3 -3 -3 -3 -3 -3 -3 -3 -3 -3 -3 -2 -4 -3 -3 -3 -4 -4 -3 -1 -0 -1 -1 -2 -0 -2 -0 -1
-3 -3 -3 -3 -3 -3 -2 -3 -6 -6 -5 -4 -4 -5 -4 -3 -3 -3 -3 -3 -3 -3 -3 -3 -3 -2 -2 -2 -2 -3 -3 -4 -3 -3 -3 -2 -0 -1 -1 -1 0 0 0 0
-4 -4 -3 -3 -4 -3 -3 -3 -4 -6 -6 -5 -5 -5 -4 -4 -4 -4 -4 -3 -3 -3 -3 -3 -3 -2 -2 -2 -2 -3 -3 -3 -3 -3 -3 -2 1 0 0 -0 1 0 1 1
-5 -5 -5 -4 -3 -4 -4 -4 -5 -6 -6 -5 -4 -5 -5 -4 -4 -4 -3 -3 -3 -3 -3 -3 -3 -3 -2 -2 -2 -1 -2 -3 -3 -3 -3 -3 0 0 0 1 1 1 1 1
-5 -6 -6 -6 -5 -4 -6 -6 -7 -7 -6 -5 -5 -5 -4 -4 -4 -4 -4 -3 -3 -3 -3 -3 -3 -3 -3 -2 -2 -1 -1 -1 -1 -1 0 0 0 0 1 1 1 1 1 1
-5 -6 -7 -7 -8 -7 -8 -8 -8 -7 -6 -6 -4 -5 -4 -4 -4 -4 -4 -4 -3 -3 -3 -3 -4 -4 -3 -3 -2 -2 -2 -1 -1 -1 0 0 0 0 1 1 2 2 2 1
-6 -7 -7 -8 -9 -9 -10 -10 -9 -7 -6 -5 -4 -5 -4 -4 -4 -3 -3 -3 -3 -4 -3 -4 -4 -4 -4 -3 -3 -3 -2 -1 -1 -0 0 0 0 0 1 1 2 2 2 2
-7 -7 -8 -9 -9 -10 -10 -10 -10 -8 -7 -5 -4 -5 -4 -4 -4 -4 -4 -4 -4 -4 -4 -4 -4 -3 -3 -3 -3 -2 -1 -1 -1 -0 -0 -0 0 0 1 1 2 2 2 1
-7 -8 -9 -9 -10 -11 -10 -10 -10 -9 -7 -6 -4 -4 -4 -4 -4 -4 -4 -4 -4 -4 -4 -4 -4 -3 -4 -4 -4 -2 -2 -1 -1 -0 0 0 0 0 0 1 1 2 2 1
-7 -8 -9 -10 -10 -11 -11 -11 -11 -9 -7 -6 -4 -4 -4 -4 -4 -4 -3 -3 -4 -4 -4 -3 -4 -4 -4 -4 -3 -1 -2 -2 -2 -2 -0 0 0 0 0 1 1 1 1 1
-7 -9 -10 -11 -11 -11 -11 -10 -9 -8 -7 -5 -5 -5 -5 -4 -4 -4 -4 -4 -4 -4 -4 -4 -4 -4 -4 -4 -1 -2 -1 -1 -1 -1 -1 -0 0 1 0 0 -0 1 1 1
-8 -9 -11 -11 -11 -10 -10 -8 -8 -7 -6 -5 -5 -5 -5 -4 -4 -4 -4 -4 -4 -4 -4 -4 -4 -4 -4 -2 -3 -2 -2 -1 -1 -1 -1 -1 0 1 0 0 -1 -0 0 -0
-8 -9 -10 -9 -8 -8 -8 -8 -7 -7 -6 -6 -5 -5 -5 -4 -4 -4 -4 -4 -4 -4 -4 -4 -4 -2 -3 -3 -3 -2 -1 -1 -1 -1 -1 -0 0 -0 -0 -0 -0 -1 -1 -1
-8 -8 -8 -7 -8 -7 -7 -6 -6 -6 -5 -5 -5 -4 -5 -4 -4 -4 -4 -4 -4 -4 -4 -4 -3 -2 -3 -3 -2 -1 -1 -0 -0 -1 -1 -1 -1 -1 -1 -0 -0 -1 -1 -2
-7 -8 -8 -7 -7 -6 -6 -6 -6 -5 -5 -6 -5 -4 -4 -4 -4 -4 -4 -4 -3 -4 -3 -3 -2 -3 -2 -2 -1 -0 -0 -1 -0 -1 -0 -1 -1 -2 -1 -1 -1 -1 -1 -2
-7 -7 -6 -6 -6 -7 -6 -6 -6 -6 -5 -5 -5 -4 -4 -5 -4 -4 -4 -4 -4 -3 -3 -3 -3 -2 -2 -1 -1 -0 0 -2 -2 0 -0 -1 -2 -2 -2 -2 -2 -2 -2 -2
-7 -6 -6 -6 -5 -6 -6 -5 -5 -6 -6 -5 -6 -6 -6 -5 -5 -4 -4 -4 -4 -4 -3 -2 -2 -2 -1 -1 -1 -0 -0 -1 -1 -0 -1 -1 -2 -2 -2 -2 -2 -2 -2 -2
-7 -6 -5 -5 -5 -5 -5 -5 -5 -6 -6 -6 -5 -6 -5 -5 -5 -4 -4 -4 -3 -3 -3 -3 -2 -2 -2 -1 -1 -1 -1 -1 -2 -1 -1 -1 -1 -2 -1 -1 -1 -2 -2 -3
-6 -6 -6 -5 -5 -5 -5 -5 -6 -6 -6 -6 -6 -5 -5 -5 -4 -4 -4 -4 -3 -3 -3 -3 -2 -2 -2 -1 -1 -1 -1 -1 -1 -2 -1 -1 -1 -1 -1 -1 -1 -1 -2 -3
-6 -6 -6 -6 -6 -6 -5 -5 -5 -6 -6 -6 -6 -5 -5 -5 -5 -4 -4 -3 -2 -3 -3 -2 -2 -2 -2 -1 -1 -1 -1 -1 -1 -1 -1 -1 -1 -1 -1 -1 -1 -1 -2 -3

GFSNW_700_temp_024.txt.gz
Temp
-1 -2 -3 -3 -3 -2 -2 -2 -4 -3 -4 -4 -4 -4 -4 -4 -4 -3 -3 -3 -3 -3 -4 -3 -4 -3 -3 -3 -3 -3 -3 -3 -3 -2 -3 -4 -4 -3 -3 -3 -4 -4 -5 -3
-1 -2 -1 -3 -2 -2 -1 -1 -2 -3 -3 -3 -3 -3 -4 -4 -3 -3 -3 -3 -3 -3 -3 -3 -4 -4 -3 -3 -4 -3 -4 -4 -4 -4 -3 -3 -4 -3 -4 -4 -4 -4 -4 -2
-1 -1 -1 -2 -3 -2 -2 -1 -3 -3 -3 -3 -3 -3 -3 -3 -3 -3 -2 -3 -3 -3 -3 -3 -4 -3 -3 -4 -4 -4 -3 -3 -3 -4 -3 -3 -4 -3 -4 -4 -4 -4 -3 -1
-2 -1 -1 -1 -2 -3 -2 -2 -2 -2 -3 -3 -3 -2 -2 -3 -3 -3 -3 -3 -3 -3 -3 -3 -3 -3 -3 -4 -4 -4 -4 -4 -3 -3 -3 -3 -3 -3 -3 -4 -3 -4 -1 -3
-2 -2 -1 -1 -2 -2 -2 -2 -2 -1 -2 -2 -3 -2 -2 -2 -3 -2 -3 -3 -3 -3 -3 -2 -2 -3 -3 -3 -4 -4 -4 -4 -4 -3 -3 -3 -2 -2 -2 -2 -2 -3 -2 -1
-3 -3 -2 -1 -2 -2 -2 -2 -2 -2 -2 -2 -2 -2 -2 -2 -2 -3 -3 -3 -3 -3 -2 -3 -3 -3 -3 -3 -3 -3 -4 -4 -4 -3 -3 -2 -2 0 -0 -0 -1 -1 -1 0
-3 -3 -3 -2 -2 -2 -2 -2 -2 -3 -3 -3 -3 -3 -3 -3 -3 -3 -2 -3 -3 -3 -3 -3 -3 -3 -4 -4 -4 -4 -3 -4 -4 -3 -2 -5 -0 -0 -1 -1 -1 -0 -0 -0
-3 -3 -4 -3 -3 -3 -2 -2 -3 -3 -3 -3 -4 -4 -4 -3 -3 -3 -3 -3 -3 -3 -3 -3 -3 -4 -4 -4 -4 -4 -4 -4 -4 -4 -4 -2 1 0 -1 -1 1 1 -0 -0
-4 -3 -3 -3 -4 -3 -3 -3 -3 -3 -3 -3 -4 -5 -5 -4 -4 -3 -3 -3 -3 -3 -3 -3 -3 -3 -3 -3 -4 -4 -4 -4 -4 -4 -4 -4 -0 -0 -1 -1 1 0 -0 0
-5 -4 -4 -3 -3 -3 -4 -4 -3 -4 -4 -3 -4 -5 -5 -5 -5 -4 -3 -3 -3 -3 -3 -3 -3 -3 -3 -3 -3 -4 -4 -4 -4 -4 -3 -2 -0 -1 -1 -0 -0 -0 1 1
-5 -5 -5 -4 -4 -3 -3 -4 -4 -5 -4 -3 -6 -6 -5 -5 -4 -5 -4 -4 -3 -3 -3 -3 -3 -3 -3 -3 -3 -2 -3 -4 -3 -3 -3 -3 -0 -1 -1 -1 -0 0 1 1
-6 -5 -5 -5 -5 -5 -5 -4 -5 -4 -4 -5 -5 -6 -5 -5 -5 -4 -4 -4 -3 -3 -3 -3 -3 -3 -3 -3 -3 -3 -2 -2 -2 -2 -1 -1 -1 -1 -1 -1 -0 0 1 1
-6 -6 -6 -6 -6 -6 -6 -6 -7 -7 -7 -6 -6 -6 -6 -4 -5 -4 -4 -4 -4 -4 -3 -3 -3 -3 -3 -3 -2 -2 -3 -3 -2 -2 -1 -1 -1 -1 -1 -1 -0 0 1 1
-7 -6 -6 -6 -6 -7 -9 -10 -10 -11 -11 -10 -7 -7 -6 -5 -4 -4 -4 -4 -4 -4 -4 -4 -4 -4 -3 -3 -3 -3 -3 -3 -3 -2 -1 -1 -1 -1 -1 -1 -0 0 1 1
-7 -6 -6 -7 -8 -9 -11 -12 -13 -13 -13 -11 -9 -9 -6 -5 -5 -4 -5 -5 -4 -4 -4 -4 -4 -4 -4 -4 -4 -2 -2 -3 -3 -3 -2 -2 -1 -1 -1 -1 -1 0 1 1
-7 -7 -7 -8 -9 -11 -11 -12 -12 -12 -12 -12 -10 -8 -7 -6 -5 -5 -5 -4 -5 -4 -5 -4 -4 -4 -4 -4 -4 -3 -4 -4 -4 -3 -3 -2 -1 -1 -0 -1 -1 -0 0 1
-7 -7 -7 -8 -10 -11 -11 -12 -12 -12 -11 -12 -10 -7 -5 -5 -5 -5 -5 -4 -4 -5 -4 -5 -5 -5 -4 -4 -4 -4 -4 -3 -3 -3 -3 -2 -1 -1 -1 -0 -0 -1 0 0
-7 -7 -7 -8 -9 -10 -10 -11 -11 -11 -11 -11 -10 -6 -5 -5 -5 -5 -5 -4 -4 -4 -4 -5 -5 -5 -5 -4 -4 -4 -3 -3 -3 -3 -3 -3 -2 -1 -1 -1 -1 -1 -1 -0
-7 -7 -7 -8 -8 -8 -9 -8 -8 -9 -9 -9 -8 -5 -4 -5 -5 -4 -5 -4 -4 -5 -5 -5 -5 -5 -4 -3 -3 -3 -4 -3 -3 -3 -3 -3 -3 -2 -1 -1 -1 -1 -1 -1
-7 -7 -7 -8 -8 -8 -7 -7 -7 -7 -7 -7 -5 -5 -5 -5 -4 -5 -4 -5 -4 -4 -4 -5 -4 -5 -4 -4 -4 -2 -2 -2 -2 -2 -2 -2 -2 -1 -1 -1 -1 -1 -1 -1
-7 -7 -7 -7 -7 -8 -8 -8 -7 -7 -6 -5 -5 -5 -4 -4 -5 -4 -4 -4 -4 -4 -4 -5 -5 -4 -4 -3 -4 -3 -2 -1 -2 -2 -2 -2 -2 -2 -2 -2 -2 -2 -2 -2
-7 -7 -7 -7 -7 -7 -8 -8 -7 -6 -6 -5 -5 -5 -4 -5 -5 -4 -4 -4 -4 -4 -5 -5 -5 -4 -3 -3 -3 -2 -2 -1 -2 -2 -2 -2 -2 -2 -2 -2 -2 -2 -2 -2
-7 -7 -7 -6 -6 -7 -7 -8 -7 -7 -6 -6 -6 -5 -5 -5 -5 -4 -4 -5 -5 -5 -5 -4 -4 -3 -3 -3 -3 -2 -1 -2 -3 -3 -2 -2 -2 -2 -3 -2 -3 -2 -2 -2
-7 -7 -7 -6 -6 -6 -7 -7 -7 -7 -7 -6 -6 -6 -5 -5 -5 -5 -5 -5 -5 -6 -6 -5 -3 -3 -3 -3 -2 -2 -2 -2 -2 -3 -3 -3 -2 -3 -2 -3 -2 -3 -2 -3
-8 -7 -6 -6 -5 -5 -5 -5 -7 -7 -7 -6 -6 -6 -6 -6 -5 -5 -5 -5 -5 -5 -4 -3 -3 -3 -3 -3 -2 -2 -2 -1 -2 -3 -3 -3 -3 -3 -3 -3 -3 -2 -2 -3
-10 -7 -6 -6 -5 -5 -5 -5 -6 -7 -7 -7 -6 -6 -6 -5 -5 -5 -5 -5 -3 -2 -2 -3 -3 -3 -3 -3 -3 -2 -2 -2 -1 -2 -2 -2 -2 -3 -3 -3 -3 -3 -3 -3
-9 -8 -7 -6 -6 -6 -6 -6 -8 -8 -7 -7 -6 -6 -6 -6 -6 -6 -5 -4 -2 -2 -3 -3 -3 -3 -3 -3 -3 -3 -3 -3 -3 -2 -2 -1 -1 -1 -2 -2 -3 -3 -3 -3

GFSNW_700_temp_027.txt.gz
Temp
-1 -2 -2 -2 -2 -2 -2 -3 -2 -3 -3 -3 -4 -5 -5 -4 -4 -3 -3 -3 -2 -3 -3 -3 -3 -3 -3 -3 -3 -3 -3 -3 -3 -3 -4 -4 -4 -3 -3 -2 -5 -5 -5 -2
-1 -1 -2 -1 -2 -2 -2 -2 -3 -2 -2 -3 -3 -4 -3 -3 -3 -3 -3 -3 -3 -3 -3 -3 -4 -3 -3 -3 -3 -3 -4 -3 -4 -4 -4 -4 -4 -3 -3 -4 -4 -4 -5 -1
-2 -2 -2 -2 -2 -2 -1 -2 -2 -2 -3 -3 -3 -3 -3 -3 -3 -3 -3 -3 -3 -3 -3 -3 -4 -4 -3 -3 -3 -4 -3 -3 -3 -4 -3 -3 -3 -3 -3 -4 -4 -4 -3 0
-2 -3 -2 -1 -1 -2 -1 -1 -1 -2 -2 -3 -3 -3 -3 -3 -3 -3 -3 -3 -3 -3 -3 -3 -4 -4 -3 -4 -4 -4 -4 -4 -4 -3 -3 -3 -3 -3 -3 -3 -3 -4 1 -2
-3 -3 -3 -2 -2 -2 -2 -1 -1 -2 -2 -3 -3 -3 -3 -3 -3 -3 -2 -3 -3 -3 -3 -3 -3 -3 -3 -4 -4 -4 -4 -4 -4 -3 -2 -2 -3 -2 -2 -3 -3 -3 -3 -1
-4 -4 -4 -3 -2 -2 -2 -2 -1 -1 -2 -3 -3 -3 -3 -3 -3 -3 -3 -3 -3 -3 -3 -3 -3 -3 -3 -3 -3 -4 -4 -4 -4 -3 -3 -3 -2 0 -1 -1 -1 -1 -2 -0
-4 -4 -4 -3 -3 -3 -3 -2 -2 -1 -1 -2 -2 -3 -3 -3 -3 -3 -3 -3 -3 -3 -3 -3 -3 -3 -4 -4 -4 -4 -4 -4 -4 -4 -3 -5 -1 -0 -1 -1 -1 -1 0 -1
-4 -4 -5 -4 -4 -4 -3 -3 -3 -2 -2 -2 -2 -2 -3 -3 -4 -3 -3 -3 -3 -3 -3 -3 -4 -4 -4 -4 -4 -4 -4 -4 -4 -4 -4 -2 0 -0 -1 -1 1 0 -0 -1
-6 -5 -4 -4 -4 -4 -4 -4 -3 -3 -2 -2 -3 -3 -3 -3 -3 -4 -3 -3 -4 -3 -3 -4 -3 -3 -3 -3 -3 -4 -4 -4 -4 -4 -4 -5 -1 -1 -1 -1 -0 -0 -0 -0
-8 -6 -5 -4 -4 -4 -5 -5 -5 -4 -4 -3 -3 -4 -4 -4 -3 -4 -4 -4 -4 -4 -4 -4 -3 -3 -3 -3 -3 -3 -4 -4 -4 -4 -3 -2 -1 -1 -1 -1 -0 -1 -0 -0
-8 -8 -6 -5 -5 -5 -4 -4 -5 -5 -4 -4 -4 -4 -5 -5 -4 -4 -4 -4 -4 -4 -4 -4 -3 -3 -3 -3 -3 -3 -2 -3 -4 -4 -3 -3 -1 -1 -1 -1 -1 -1 -0 0
-7 -8 -8 -7 -6 -6 -5 -5 -5 -5 -4 -4 -5 -4 -4 -5 -5 -6 -5 -4 -4 -3 -3 -3 -3 -3 -3 -3 -3 -3 -3 -2 -3 -2 -1 -1 -2 -2 -1 -1 -1 -1 0 1
-7 -8 -9 -7 -7 -7 -7 -6 -7 -6 -6 -5 -4 -5 -6 -6 -6 -5 -5 -5 -4 -4 -4 -4 -3 -3 -3 -3 -3 -3 -3 -3 -3 -3 -1 -1 -1 -2 -2 -1 -1 -1 -0 1
-8 -7 -8 -8 -7 -7 -7 -8 -9 -10 -11 -11 -7 -7 -8 -7 -6 -6 -5 -4 -4 -4 -4 -4 -4 -4 -3 -3 -3 -3 -3 -3 -3 -3 -2 -2 -2 -2 -1 -1 -1 -0 -0 1
-8 -8 -8 -7 -7 -8 -9 -10 -11 -12 -13 -12 -10 -10 -10 -8 -7 -5 -4 -5 -4 -4 -4 -4 -4 -4 -4 -4 -3 -2 -3 -3 -3 -3 -3 -3 -2 -2 -2 -1 -1 -1 -0 0
-8 -8 -8 -8 -8 -8 -9 -10 -11 -12 -12 -13 -11 -10 -9 -9 -6 -5 -4 -5 -4 -4 -4 -4 -4 -5 -5 -4 -4 -3 -3 -4 -5 -4 -3 -3 -2 -1 -1 -1 -1 -1 -1 -0
-8 -8 -8 -8 -8 -8 -9 -10 -10 -11 -11 -12 -12 -9 -9 -8 -7 -5 -5 -5 -4 -5 -5 -4 -4 -4 -4 -4 -4 -3 -4 -4 -4 -4 -3 -3 -3 -3 -2 -1 -1 -0 -0 -1
-8 -8 -8 -8 -8 -9 -9 -9 -9 -10 -10 -10 -10 -7 -7 -7 -6 -5 -4 -4 -4 -4 -4 -4 -4 -5 -5 -4 -3 -3 -4 -4 -4 -3 -3 -3 -4 -3 -3 -2 -1 -1 -0 -1
-8 -8 -7 -8 -8 -8 -8 -8 -7 -9 -9 -10 -9 -7 -5 -5 -5 -5 -4 -5 -5 -4 -4 -4 -4 -4 -4 -4 -3 -3 -3 -3 -3 -3 -3 -3 -3 -3 -3 -2 -1 -1 -0 -1
-8 -7 -7 -7 -8 -8 -8 -7 -8 -8 -7 -7 -5 -5 -5 -5 -5 -5 -5 -5 -5 -4 -4 -5 -5 -4 -4 -5 -4 -5 -4 -3 -2 -2 -2 -2 -3 -3 -3 -2 -2 -1 -1 -1
-8 -8 -7 -7 -7 -7 -7 -8 -8 -8 -6 -6 -5 -5 -5 -5 -5 -5 -5 -4 -5 -4 -4 -4 -4 -4 -4 -5 -5 -4 -3 -2 -2 -2 -2 -3 -2 -2 -2 -2 -2 -1 -1 -2
-8 -8 -7 -7 -7 -6 -7 -8 -7 -7 -6 -6 -5 -5 -5 -4 -5 -5 -5 -4 -4 -4 -5 -4 -5 -3 -3 -4 -4 -3 -3 -2 -2 -2 -3 -3 -3 -2 -2 -3 -2 -2 -2 -2
-8 -7 -7 -7 -6 -7 -8 -8 -7 -7 -7 -6 -5 -5 -5 -4 -5 -5 -5 -5 -5 -5 -5 -5 -5 -3 -3 -3 -3 -3 -2 -2 -3 -3 -3 -3 -3 -3 -3 -3 -3 -3 -3 -2
-9 -8 -7 -6 -6 -6 -7 -8 -7 -7 -7 -6 -6 -5 -5 -5 -5 -5 -5 -5 -6 -6 -6 -6 -2 -3 -3 -3 -3 -3 -2 -2 -3 -4 -3 -3 -3 -3 -3 -3 -3 -3 -3 -3
-10 -9 -7 -7 -6 -6 -6 -6 -7 -8 -7 -7 -6 -6 -6 -5 -5 -5 -6 -6 -6 -6 -4 -3 -3 -3 -3 -3 -3 -3 -3 -2 -2 -3 -4 -4 -3 -3 -3 -3 -3 -3 -3 -3
-10 -9 -7 -7 -7 -7 -6 -6 -6 -7 -7 -7 -7 -6 -6 -5 -5 -6 -6 -6 -4 -3 -2 -3 -3 -3 -4 -3 -3 -3 -3 -3 -3 -3 -3 -3 -3 -3 -4 -3 -3 -3 -3 -3
-9 -8 -8 -8 -7 -7 -7 -6 -7 -7 -7 -7 -7 -6 -6 -6 -6 -6 -6 -5 -3 -3 -3 -3 -4 -4 -4 -4 -3 -3 -3 -3 -3 -3 -3 -3 -3 -2 -3 -3 -3 -3 -3 -3

GFSNW_700_temp_033.txt.gz
Temp
-3 -2 -2 -1 -1 -1 -2 -2 -2 -2 -3 -4 -4 -4 -4 -5 -4 -3 -3 -3 -3 -3 -3 -3 -3 -3 -2 -3 -3 -3 -2 -2 -4 -4 -4 -4 -3 -3 -3 -2 -4 -4 -4 0
-3 -3 -2 -2 -1 -1 -1 -1 -2 -2 -2 -4 -5 -5 -5 -4 -4 -3 -3 -3 -3 -3 -3 -3 -3 -3 -3 -3 -3 -3 -3 -3 -4 -5 -4 -4 -4 -3 -3 -3 -2 -3 -3 0
-4 -4 -3 -2 -2 -1 -1 -1 -2 -2 -2 -2 -3 -3 -4 -4 -4 -3 -3 -3 -3 -3 -3 -3 -3 -3 -3 -3 -3 -3 -3 -3 -3 -3 -3 -3 -4 -3 -3 -3 -3 -3 -2 1
-4 -5 -4 -3 -2 -2 -1 -1 -1 -1 -2 -2 -2 -3 -3 -3 -3 -3 -4 -4 -4 -4 -3 -3 -3 -3 -3 -3 -3 -3 -4 -4 -3 -3 -3 -3 -3 -3 -3 -3 -3 -3 -1 -0
-5 -5 -5 -5 -3 -2 -2 -2 -2 -2 -2 -2 -2 -3 -3 -3 -3 -3 -3 -3 -4 -4 -3 -3 -3 -3 -3 -3 -3 -4 -4 -4 -4 -3 -3 -3 -3 -3 -3 -3 -3 -3 -2 -0
-6 -6 -6 -5 -4 -3 -3 -2 -2 -2 -2 -2 -3 -3 -3 -3 -3 -3 -3 -3 -3 -3 -3 -3 -3 -4 -4 -3 -3 -4 -4 -4 -4 -3 -4 -4 -3 -1 -1 -1 -1 -1 -2 -0
-7 -6 -7 -6 -5 -4 -4 -4 -3 -3 -3 -3 -3 -3 -3 -3 -3 -3 -3 -3 -3 -3 -3 -3 -3 -4 -4 -4 -4 -4 -4 -5 -5 -4 -4 -5 -2 -1 -1 -1 -1 -1 -0 -1
-7 -7 -7 -8 -7 -5 -5 -4 -4 -4 -3 -3 -3 -3 -3 -3 -3 -3 -3 -3 -3 -4 -4 -4 -4 -4 -4 -4 -4 -4 -5 -5 -4 -4 -4 -3 -1 -1 -1 -1 -1 -1 -1 -1
-8 -8 -7 -7 -8 -7 -6 -5 -5 -5 -4 -4 -4 -3 -4 -4 -4 -4 -4 -4 -4 -4 -4 -4 -4 -4 -4 -4 -4 -4 -4 -4 -4 -5 -5 -5 -2 -1 -1 -1 -2 -1 -1 -1
-9 -8 -8 -8 -8 -8 -8 -7 -6 -6 -5 -5 -4 -4 -4 -4 -4 -4 -4 -4 -4 -4 -4 -4 -4 -4 -3 -4 -4 -5 -5 -5 -4 -5 -5 -3 -2 -2 -2 -2 -2 -2 -1 -1
-9 -8 -8 -8 -9 -8 -8 -8 -8 -6 -6 -6 -5 -4 -4 -5 -5 -6 -5 -5 -5 -4 -5 -4 -4 -4 -3 -3 -3 -3 -4 -4 -5 -5 -5 -4 -2 -2 -2 -2 -2 -2 -1 -1
-9 -9 -9 -9 -9 -8 -8 -8 -8 -7 -6 -6 -6 -6 -5 -4 -5 -5 -6 -5 -5 -5 -5 -4 -4 -3 -3 -3 -3 -3 -4 -3 -3 -3 -2 -2 -2 -2 -2 -2 -2 -2 -1 -1
-9 -9 -9 -9 -9 -9 -9 -9 -9 -9 -7 -4 -3 -5 -6 -6 -5 -7 -6 -7 -5 -5 -5 -4 -4 -3 -3 -3 -3 -3 -3 -3 -3 -3 -2 -2 -2 -3 -2 -2 -2 -2 -2 -1
-9 -9 -9 -9 -9 -9 -10 -9 -8 -8 -8 -5 -4 -5 -6 -7 -8 -7 -7 -7 -6 -5 -5 -5 -5 -4 -3 -3 -3 -3 -3 -3 -3 -3 -2 -2 -2 -2 -2 -2 -2 -2 -2 -1
-10 -10 -9 -9 -10 -9 -8 -9 -8 -8 -8 -7 -4 -6 -7 -7 -7 -8 -8 -7 -7 -6 -5 -5 -5 -5 -4 -3 -3 -3 -2 -2 -3 -2 -3 -3 -3 -3 -3 -2 -2 -2 -1 -1
-10 -9 -9 -9 -8 -8 -9 -8 -8 -8 -8 -9 -6 -6 -7 -8 -9 -9 -9 -9 -8 -6 -6 -5 -5 -4 -4 -4 -3 -2 -2 -2 -2 -3 -3 -3 -3 -3 -2 -2 -2 -2 -2 -2
-9 -9 -9 -8 -8 -8 -8 -8 -8 -8 -9 -9 -7 -7 -9 -9 -10 -10 -11 -11 -9 -8 -7 -6 -4 -4 -5 -4 -3 -2 -2 -3 -3 -3 -3 -3 -3 -3 -4 -3 -3 -3 -2 -2
-9 -9 -9 -8 -8 -8 -8 -8 -7 -7 -8 -8 -8 -8 -8 -9 -10 -11 -11 -11 -9 -8 -7 -5 -5 -5 -5 -4 -2 -2 -2 -3 -3 -2 -3 -4 -3 -3 -4 -4 -4 -4 -3 -3
-9 -8 -8 -8 -8 -7 -8 -7 -6 -7 -8 -8 -7 -7 -7 -8 -9 -10 -9 -10 -8 -7 -5 -5 -5 -5 -5 -3 -3 -3 -3 -3 -3 -3 -3 -3 -3 -2 -2 -3 -3 -4 -4 -3
-9 -8 -8 -7 -8 -7 -7 -6 -7 -7 -7 -7 -6 -6 -6 -6 -6 -7 -8 -7 -5 -5 -5 -5 -5 -4 -3 -3 -3 -3 -3 -3 -3 -3 -3 -3 -3 -2 -2 -2 -3 -3 -4 -4
-9 -9 -9 -8 -8 -7 -7 -7 -7 -8 -7 -6 -6 -6 -6 -6 -5 -5 -5 -5 -5 -4 -5 -5 -5 -3 -2 -2 -2 -3 -3 -3 -3 -3 -3 -3 -2 -2 -3 -3 -3 -3 -4 -4
-9 -9 -8 -8 -7 -7 -7 -8 -8 -7 -7 -7 -6 -6 -5 -5 -5 -5 -4 -4 -4 -6 -5 -5 -5 -2 -2 -2 -2 -3 -4 -3 -3 -4 -3 -2 -3 -4 -4 -4 -3 -3 -4 -3
-8 -8 -9 -9 -7 -7 -8 -8 -8 -8 -8 -7 -7 -6 -6 -5 -5 -5 -5 -4 -5 -5 -6 -5 -4 -3 -3 -3 -3 -3 -3 -3 -3 -3 -4 -4 -4 -4 -4 -4 -3 -3 -3 -3
-8 -9 -9 -9 -8 -8 -9 -8 -8 -8 -8 -7 -7 -7 -6 -6 -5 -5 -5 -5 -5 -6 -6 -6 -4 -4 -4 -4 -4 -4 -3 -3 -3 -3 -4 -5 -4 -4 -4 -4 -4 -4 -3 -3
-8 -9 -9 -10 -9 -10 -9 -8 -8 -8 -7 -7 -8 -7 -6 -6 -5 -5 -6 -6 -6 -6 -6 -5 -5 -5 -5 -5 -4 -4 -4 -4 -3 -4 -4 -5 -5 -5 -5 -5 -4 -4 -3 -3
-8 -8 -9 -9 -9 -9 -9 -9 -9 -8 -7 -7 -8 -7 -6 -6 -6 -6 -6 -6 -6 -5 -4 -4 -4 -5 -5 -5 -5 -4 -4 -5 -4 -4 -4 -4 -4 -4 -4 -4 -3 -3 -3 -3
-8 -9 -9 -9 -9 -10 -10 -10 -9 -9 -8 -8 -8 -7 -7 -7 -7 -7 -6 -5 -5 -5 -4 -4 -4 -5 -5 -5 -5 -5 -5 -5 -4 -4 -4 -4 -4 -4 -3 -3 -3 -3 -3 -3